| time (UTC) | temp F | wind direction | speed knots | gust knots | rain 1hr in | rain 24hr in | rain mn in | humidity % | barometer mb |
| 20260506231555 | 58 | 208 | 5.2 | 10.4 | 0.05 | 0.17 | 0.17 | 94 | 1002.8 |
| 20260506230054 | 58 | 231 | 7.0 | 12.2 | 0.05 | 0.17 | 0.17 | 94 | 1002.6 |
| 20260506224540 | 58 | 165 | 5.2 | 10.4 | 0.04 | 0.16 | 0.16 | 94 | 1002.6 |
| 20260506223047 | 58 | 176 | 5.2 | 12.2 | 0.01 | 0.13 | 0.13 | 94 | 1002.8 |
| 20260506221531 | 58 | 195 | 3.5 | 8.7 | 0.01 | 0.12 | 0.12 | 94 | 1002.8 |
| 20260506220028 | 58 | 223 | 4.3 | 11.3 | 0.01 | 0.12 | 0.12 | 94 | 1003.0 |
| 20260506214523 | 58 | 158 | 3.5 | 8.7 | 0.01 | 0.12 | 0.12 | 94 | 1003.0 |
| 20260506213020 | 58 | 162 | 6.1 | 13.0 | 0.01 | 0.12 | 0.12 | 93 | 1003.1 |
| 20260506211516 | 59 | 167 | 3.5 | 11.3 | 0.00 | 0.11 | 0.11 | 92 | 1003.3 |
| 20260506210014 | 59 | 163 | 4.3 | 13.0 | 0.00 | 0.11 | 0.11 | 91 | 1003.4 |
| 20260506204509 | 59 | 191 | 4.3 | 13.9 | 0.01 | 0.11 | 0.11 | 91 | 1003.5 |
| 20260506203005 | 59 | 185 | 5.2 | 16.5 | 0.01 | 0.11 | 0.11 | 91 | 1003.6 |
| 20260506201503 | 59 | 226 | 4.3 | 16.5 | 0.02 | 0.11 | 0.11 | 91 | 1003.6 |
| 20260506200104 | 59 | 171 | 7.0 | 18.2 | 0.04 | 0.11 | 0.11 | 91 | 1003.6 |
| 20260506194614 | 59 | 201 | 7.0 | 14.8 | 0.04 | 0.10 | 0.10 | 91 | 1003.8 |
| 20260506193054 | 59 | 203 | 7.0 | 14.8 | 0.07 | 0.10 | 0.10 | 90 | 1003.8 |
| 20260506191551 | 60 | 191 | 7.8 | 18.2 | 0.08 | 0.09 | 0.09 | 89 | 1004.0 |
| 20260506190046 | 60 | 160 | 5.2 | 13.0 | 0.07 | 0.07 | 0.07 | 88 | 1004.1 |
| 20260506184542 | 61 | 154 | 4.3 | 12.2 | 0.06 | 0.06 | 0.06 | 87 | 1003.9 |
| 20260506183055 | 62 | 168 | 4.3 | 13.9 | 0.03 | 0.03 | 0.03 | 83 | 1004.2 |
| 20260506181537 | 63 | 214 | 9.6 | 17.4 | 0.01 | 0.01 | 0.01 | 80 | 1004.5 |
| 20260506180035 | 64 | 225 | 7.8 | 19.1 | 0.00 | 0.00 | 0.00 | 76 | 1004.5 |
| 20260506174527 | 66 | 214 | 10.4 | 26.9 | 0.00 | 0.00 | 0.00 | 71 | 1004.6 |
| 20260506173024 | 68 | 211 | 9.6 | 25.2 | 0.00 | 0.00 | 0.00 | 66 | 1004.7 |
| 20260506171526 | 70 | 192 | 13.0 | 25.2 | 0.00 | 0.00 | 0.00 | 62 | 1004.3 |
| 20260506170015 | 70 | 203 | 7.8 | 24.3 | 0.00 | 0.00 | 0.00 | 62 | 1004.4 |
| 20260506164512 | 71 | 205 | 7.8 | 15.6 | 0.00 | 0.00 | 0.00 | 60 | 1004.6 |
| 20260506163008 | 70 | 196 | 5.2 | 17.4 | 0.00 | 0.00 | 0.00 | 61 | 1004.6 |
| 20260506161503 | 70 | 195 | 7.8 | 17.4 | 0.00 | 0.00 | 0.00 | 61 | 1004.9 |
| 20260506160115 | 70 | 210 | 7.0 | 25.2 | 0.00 | 0.00 | 0.00 | 62 | 1005.1 |
| 20260506154604 | 69 | 200 | 9.6 | 20.9 | 0.00 | 0.00 | 0.00 | 63 | 1005.3 |
| 20260506153051 | 69 | 136 | 3.5 | 15.6 | 0.00 | 0.00 | 0.00 | 65 | 1005.6 |
| 20260506151548 | 68 | 245 | 9.6 | 18.2 | 0.00 | 0.00 | 0.00 | 64 | 1005.7 |
| 20260506150044 | 69 | 199 | 4.3 | 19.1 | 0.00 | 0.00 | 0.00 | 65 | 1005.8 |
| 20260506144553 | 68 | 214 | 7.0 | 14.8 | 0.00 | 0.00 | 0.00 | 67 | 1005.9 |
| 20260506143037 | 67 | 177 | 5.2 | 11.3 | 0.00 | 0.00 | 0.00 | 70 | 1006.2 |
| 20260506141533 | 66 | 205 | 4.3 | 13.0 | 0.00 | 0.00 | 0.00 | 72 | 1006.0 |
| 20260506140028 | 66 | 201 | 7.0 | 13.0 | 0.00 | 0.00 | 0.00 | 73 | 1005.9 |
| 20260506134525 | 65 | 215 | 4.3 | 14.8 | 0.00 | 0.00 | 0.00 | 74 | 1005.9 |
| 20260506133020 | 64 | 196 | 3.5 | 12.2 | 0.00 | 0.00 | 0.00 | 76 | 1006.0 |
| 20260506131515 | 63 | 198 | 6.1 | 13.9 | 0.00 | 0.00 | 0.00 | 78 | 1006.4 |
| 20260506130013 | 62 | 191 | 7.8 | 13.0 | 0.00 | 0.00 | 0.00 | 80 | 1006.6 |
| 20260506124506 | 61 | 222 | 6.1 | 14.8 | 0.00 | 0.00 | 0.00 | 80 | 1006.6 |
| 20260506123104 | 62 | 196 | 3.5 | 9.6 | 0.00 | 0.00 | 0.00 | 80 | 1006.5 |
| 20260506121600 | 60 | 203 | 5.2 | 13.0 | 0.00 | 0.00 | 0.00 | 82 | 1006.8 |
| 20260506120057 | 60 | 212 | 4.3 | 12.2 | 0.00 | 0.00 | 0.00 | 83 | 1006.8 |
| 20260506114555 | 59 | 229 | 2.6 | 8.7 | 0.00 | 0.00 | 0.00 | 84 | 1006.8 |
| 20260506113049 | 58 | 196 | 4.3 | 14.8 | 0.00 | 0.00 | 0.00 | 85 | 1007.1 |
| 20260506111544 | 58 | 154 | 6.1 | 12.2 | 0.00 | 0.00 | 0.00 | 86 | 1007.3 |
| 20260506110041 | 57 | 241 | 4.3 | 11.3 | 0.00 | 0.00 | 0.00 | 87 | 1007.2 |
| 20260506104539 | 57 | 209 | 6.1 | 10.4 | 0.00 | 0.00 | 0.00 | 86 | 1007.1 |
| 20260506103045 | 57 | 178 | 2.6 | 7.8 | 0.00 | 0.00 | 0.00 | 87 | 1007.0 |
| 20260506101530 | 57 | 176 | 3.5 | 9.6 | 0.00 | 0.00 | 0.00 | 87 | 1006.9 |
| 20260506100027 | 57 | 227 | 3.5 | 7.8 | 0.00 | 0.00 | 0.00 | 87 | 1007.0 |
| 20260506094522 | 57 | 219 | 2.6 | 7.8 | 0.00 | 0.00 | 0.00 | 87 | 1006.9 |
| 20260506093018 | 57 | 177 | 4.3 | 9.6 | 0.00 | 0.00 | 0.00 | 86 | 1006.9 |
| 20260506091516 | 57 | 198 | 3.5 | 9.6 | 0.00 | 0.00 | 0.00 | 86 | 1006.9 |
| 20260506090016 | 57 | 203 | 3.5 | 11.3 | 0.00 | 0.00 | 0.00 | 85 | 1006.9 |
| 20260506084505 | 57 | 166 | 5.2 | 13.0 | 0.00 | 0.00 | 0.00 | 84 | 1006.9 |
| 20260506083019 | 58 | 207 | 6.1 | 14.8 | 0.00 | 0.00 | 0.00 | 84 | 1007.0 |
| 20260506081516 | 58 | 193 | 4.3 | 11.3 | 0.00 | 0.00 | 0.00 | 83 | 1007.0 |
| 20260506073105 | 59 | 212 | 6.1 | 13.9 | 0.00 | 0.00 | 0.00 | 81 | 1006.9 |
| 20260506071601 | 59 | 166 | 4.3 | 12.2 | 0.00 | 0.00 | 0.00 | 80 | 1006.9 |
| 20260506061556 | 61 | 205 | 7.0 | 14.8 | 0.00 | 0.00 | 0.00 | 77 | 1006.6 |
| 20260506044521 | 62 | 207 | 8.7 | 16.5 | 0.00 | 0.00 | 0.00 | 71 | 1007.1 |
| 20260506043024 | 62 | 203 | 8.7 | 15.6 | 0.00 | 0.00 | 0.00 | 71 | 1007.2 |
| 20260506041507 | 61 | 246 | 7.8 | 16.5 | 0.00 | 0.00 | 0.00 | 71 | 1007.1 |
| 20260506040004 | 61 | 203 | 7.0 | 13.0 | 0.00 | 0.00 | 0.00 | 71 | 1007.2 |
| 20260506034607 | 61 | 214 | 7.0 | 14.8 | 0.00 | 0.00 | 0.00 | 71 | 1007.2 |
| 20260506033101 | 61 | 202 | 7.0 | 14.8 | 0.00 | 0.00 | 0.00 | 71 | 1007.1 |
| 20260506031556 | 61 | 197 | 5.2 | 13.9 | 0.00 | 0.00 | 0.00 | 70 | 1007.0 |
| 20260506030055 | 61 | 212 | 5.2 | 11.3 | 0.00 | 0.00 | 0.00 | 70 | 1006.9 |
| 20260506024556 | 61 | 200 | 4.3 | 13.9 | 0.00 | 0.00 | 0.00 | 69 | 1007.0 |
| 20260506023043 | 62 | 217 | 10.4 | 22.6 | 0.00 | 0.00 | 0.00 | 68 | 1007.0 |
| 20260506021555 | 62 | 212 | 9.6 | 16.5 | 0.00 | 0.00 | 0.00 | 67 | 1007.1 |
| 20260506020035 | 63 | 222 | 7.8 | 17.4 | 0.00 | 0.00 | 0.00 | 66 | 1006.9 |
| 20260506014532 | 63 | 203 | 11.3 | 19.1 | 0.00 | 0.00 | 0.00 | 65 | 1006.7 |
| 20260506013028 | 63 | 182 | 12.2 | 20.0 | 0.00 | 0.00 | 0.00 | 65 | 1006.4 |
| 20260506011524 | 64 | 221 | 5.2 | 13.0 | 0.00 | 0.00 | 0.00 | 64 | 1006.5 |
| 20260506010125 | 64 | 201 | 9.6 | 16.5 | 0.00 | 0.00 | 0.00 | 64 | 1006.1 |
| 20260506004508 | 66 | 190 | 7.8 | 17.4 | 0.00 | 0.00 | 0.00 | 62 | 1006.2 |
| 20260506003003 | 66 | 180 | 7.8 | 13.0 | 0.00 | 0.00 | 0.00 | 60 | 1006.1 |
| 20260506001604 | 67 | 235 | 8.7 | 17.4 | 0.00 | 0.00 | 0.00 | 58 | 1005.8 |
| 20260505234607 | 69 | 168 | 7.8 | 16.5 | 0.00 | 0.00 | 0.00 | 55 | 1005.4 |
| 20260505233053 | 70 | 204 | 10.4 | 20.0 | 0.00 | 0.00 | 0.00 | 54 | 1005.2 |